Location: Unspecified
(0.0000°N, 0.0000°E)
Time: 15:52:24
(UTC+00:00)

Envisat - Pass Details

Date: 15 December 2018
Orbit: 764 x 766 km, 98.2° (Epoch: 13 December)

Event Time Altitude Azimuth Distance (km) Brightness Sun altitude
Rises 18:25:16 0° 141° (SE) 3,229 6.1 -6.9°
Reaches altitude 10° 18:28:07 10° 125° (SE) 2,300 5.2 -7.5°
Maximum altitude 18:31:50 21° 78° (ENE) 1,676 4.2 -8.4°
Drops below altitude 10° 18:35:33 10° 30° (NNE) 2,292 5.0 -9.2°
Sets 18:38:21 0° 14° (NNE) 3,214 5.9 -9.9°
